Time,TemperatureF,DewpointF,PressureIn,WindDirection,WindDirectionDegrees,WindSpeedMPH,WindSpeedGustMPH,Humidity,HourlyPrecipIn,Conditions,Clouds,dailyrainin,SoftwareType,DateUTC
2013-08-07 00:05:00,54.6,47.0,29.88,ENE,62,0.0,0.0,75,0.00,,,0.00,weatherlink.com 1.10,2013-08-07 06:05:00,
2013-08-07 00:20:00,54.4,47.0,29.88,ENE,62,0.0,0.0,75,0.00,,,0.00,weatherlink.com 1.10,2013-08-07 06:20:00,
2013-08-07 00:35:00,52.6,45.0,29.88,ENE,62,0.0,0.0,76,0.00,,,0.00,weatherlink.com 1.10,2013-08-07 06:35:00,
2013-08-07 00:50:00,51.5,45.0,29.89,ENE,62,0.0,1.0,77,0.00,,,0.00,weatherlink.com 1.10,2013-08-07 06:50:00,
2013-08-07 01:05:00,51.0,44.0,29.89,ENE,67,0.0,0.0,78,0.00,,,0.00,weatherlink.com 1.10,2013-08-07 07:05:00,
2013-08-07 01:20:00,51.1,44.0,29.88,ENE,68,0.0,0.0,77,0.00,,,0.00,weatherlink.com 1.10,2013-08-07 07:20:00,
2013-08-07 01:35:00,51.3,44.0,29.88,ENE,70,0.0,0.0,77,0.00,,,0.00,weatherlink.com 1.10,2013-08-07 07:35:00,
2013-08-07 01:50:00,51.2,44.0,29.88,ENE,70,0.0,0.0,76,0.00,,,0.00,weatherlink.com 1.10,2013-08-07 07:50:00,
2013-08-07 02:05:00,51.2,44.0,29.88,ENE,69,0.0,0.0,76,0.00,,,0.00,weatherlink.com 1.10,2013-08-07 08:05:00,
2013-08-07 02:20:00,51.0,43.0,29.87,ENE,70,0.0,0.0,75,0.00,,,0.00,weatherlink.com 1.10,2013-08-07 08:20:00,
2013-08-07 02:35:00,50.7,43.0,29.87,ENE,70,0.0,0.0,75,0.00,,,0.00,weatherlink.com 1.10,2013-08-07 08:35:00,
2013-08-07 02:50:00,51.5,43.0,29.87,ENE,70,0.0,0.0,74,0.00,,,0.00,weatherlink.com 1.10,2013-08-07 08:50:00,
2013-08-07 03:05:00,50.4,43.0,29.87,ENE,70,3.0,3.0,75,0.00,,,0.00,weatherlink.com 1.10,2013-08-07 09:05:00,
2013-08-07 03:20:00,49.4,42.0,29.87,ENE,68,0.0,5.0,77,0.00,,,0.00,weatherlink.com 1.10,2013-08-07 09:20:00,
2013-08-07 03:36:00,49.6,43.0,29.87,ENE,69,0.0,0.0,79,0.00,,,0.00,weatherlink.com 1.10,2013-08-07 09:36:00,
2013-08-07 03:51:00,50.6,43.0,29.87,ENE,69,0.0,0.0,76,0.00,,,0.00,weatherlink.com 1.10,2013-08-07 09:51:00,
2013-08-07 04:06:00,49.8,43.0,29.87,ENE,68,0.0,0.0,76,0.00,,,0.00,weatherlink.com 1.10,2013-08-07 10:06:00,
2013-08-07 04:21:00,49.7,43.0,29.87,ENE,69,0.0,0.0,78,0.00,,,0.00,weatherlink.com 1.10,2013-08-07 10:21:00,
2013-08-07 04:36:00,49.0,43.0,29.87,ENE,69,0.0,0.0,80,0.00,,,0.00,weatherlink.com 1.10,2013-08-07 10:36:00,
2013-08-07 04:51:00,49.2,43.0,29.88,ENE,69,0.0,0.0,79,0.00,,,0.00,weatherlink.com 1.10,2013-08-07 10:51:00,
2013-08-07 05:06:00,49.5,43.0,29.87,ENE,69,0.0,0.0,77,0.00,,,0.00,weatherlink.com 1.10,2013-08-07 11:06:00,
2013-08-07 05:21:00,50.0,43.0,29.87,ENE,69,0.0,0.0,76,0.00,,,0.00,weatherlink.com 1.10,2013-08-07 11:21:00,
2013-08-07 05:36:00,50.1,44.0,29.88,ENE,69,0.0,0.0,78,0.00,,,0.00,weatherlink.com 1.10,2013-08-07 11:36:00,
2013-08-07 05:51:00,50.3,44.0,29.88,ENE,69,0.0,0.0,78,0.00,,,0.00,weatherlink.com 1.10,2013-08-07 11:51:00,
2013-08-07 06:06:00,50.3,44.0,29.88,ENE,69,0.0,0.0,78,0.00,,,0.00,weatherlink.com 1.10,2013-08-07 12:06:00,
2013-08-07 06:21:00,49.4,43.0,29.88,ENE,69,0.0,0.0,79,0.00,,,0.00,weatherlink.com 1.10,2013-08-07 12:21:00,
2013-08-07 06:36:00,49.1,43.0,29.88,ENE,69,0.0,0.0,80,0.00,,,0.00,weatherlink.com 1.10,2013-08-07 12:36:00,
2013-08-07 06:51:00,49.6,44.0,29.88,ENE,64,2.0,4.0,80,0.00,,,0.00,weatherlink.com 1.10,2013-08-07 12:51:00,
2013-08-07 07:06:00,50.5,44.0,29.88,ENE,63,0.0,0.0,79,0.00,,,0.00,weatherlink.com 1.10,2013-08-07 13:06:00,
2013-08-07 07:21:00,50.7,44.0,29.88,ENE,64,0.0,0.0,79,0.00,,,0.00,weatherlink.com 1.10,2013-08-07 13:21:00,
2013-08-07 07:36:00,50.6,45.0,29.88,ENE,63,0.0,0.0,80,0.00,,,0.00,weatherlink.com 1.10,2013-08-07 13:36:00,
2013-08-07 07:51:00,51.0,45.0,29.88,ENE,64,0.0,0.0,80,0.00,,,0.00,weatherlink.com 1.10,2013-08-07 13:51:00,
2013-08-07 08:06:00,52.1,45.0,29.88,ENE,63,0.0,0.0,78,0.00,,,0.00,weatherlink.com 1.10,2013-08-07 14:06:00,
2013-08-07 08:21:00,52.8,46.0,29.89,ENE,63,0.0,0.0,77,0.00,,,0.00,weatherlink.com 1.10,2013-08-07 14:21:00,
2013-08-07 08:36:00,53.3,45.0,29.89,ENE,64,0.0,0.0,74,0.00,,,0.00,weatherlink.com 1.10,2013-08-07 14:36:00,
2013-08-07 08:51:00,54.1,46.0,29.89,ENE,63,0.0,0.0,74,0.00,,,0.00,weatherlink.com 1.10,2013-08-07 14:51:00,
2013-08-07 09:06:00,55.3,46.0,29.89,ENE,64,0.0,0.0,71,0.00,,,0.00,weatherlink.com 1.10,2013-08-07 15:06:00,
2013-08-07 09:21:00,56.0,46.0,29.89,ENE,64,0.0,0.0,70,0.00,,,0.00,weatherlink.com 1.10,2013-08-07 15:21:00,
2013-08-07 09:36:00,57.2,46.0,29.89,East,86,0.0,6.0,66,0.00,,,0.00,weatherlink.com 1.10,2013-08-07 15:36:00,
2013-08-07 09:51:00,59.0,47.0,29.89,SW,236,0.0,6.0,65,0.00,,,0.00,weatherlink.com 1.10,2013-08-07 15:51:00,
2013-08-07 10:06:00,59.0,46.0,29.89,WSW,247,0.0,0.0,62,0.00,,,0.00,weatherlink.com 1.10,2013-08-07 16:06:00,
2013-08-07 10:21:00,57.8,46.0,29.89,SW,229,1.0,4.0,65,0.00,,,0.00,weatherlink.com 1.10,2013-08-07 16:21:00,
2013-08-07 10:36:00,58.5,46.0,29.90,SW,228,0.0,4.0,63,0.00,,,0.00,weatherlink.com 1.10,2013-08-07 16:36:00,
2013-08-07 10:51:00,59.7,47.0,29.90,ESE,112,0.0,4.0,63,0.00,,,0.00,weatherlink.com 1.10,2013-08-07 16:51:00,
2013-08-07 11:06:00,60.0,48.0,29.90,ESE,114,0.0,3.0,64,0.00,,,0.00,weatherlink.com 1.10,2013-08-07 17:06:00,
2013-08-07 11:21:00,60.7,47.0,29.90,SSE,159,2.0,7.0,61,0.00,,,0.00,weatherlink.com 1.10,2013-08-07 17:21:00,
2013-08-07 11:36:00,60.5,47.0,29.90,SW,219,6.0,10.0,61,0.00,,,0.00,weatherlink.com 1.10,2013-08-07 17:36:00,
2013-08-07 11:51:00,59.8,48.0,29.89,SSW,204,5.0,11.0,66,0.00,,,0.00,weatherlink.com 1.10,2013-08-07 17:51:00,
2013-08-07 12:06:00,59.3,46.0,29.89,South,180,4.0,15.0,61,0.00,,,0.00,weatherlink.com 1.10,2013-08-07 18:06:00,
2013-08-07 12:21:00,59.7,44.0,29.90,South,172,11.0,19.0,56,0.00,,,0.00,weatherlink.com 1.10,2013-08-07 18:21:00,
2013-08-07 12:36:00,59.5,44.0,29.90,South,172,3.0,16.0,57,0.00,,,0.00,weatherlink.com 1.10,2013-08-07 18:36:00,
2013-08-07 12:51:00,60.4,45.0,29.90,South,171,7.0,16.0,57,0.00,,,0.00,weatherlink.com 1.10,2013-08-07 18:51:00,
2013-08-07 13:06:00,63.2,46.0,29.90,South,169,3.0,13.0,54,0.00,,,0.00,weatherlink.com 1.10,2013-08-07 19:06:00,
2013-08-07 13:21:00,65.0,46.0,29.89,SSE,162,12.0,20.0,51,0.00,,,0.00,weatherlink.com 1.10,2013-08-07 19:21:00,
2013-08-07 13:36:00,63.5,46.0,29.89,SSW,195,5.0,22.0,53,0.00,,,0.00,weatherlink.com 1.10,2013-08-07 19:36:00,
2013-08-07 13:51:00,66.4,46.0,29.88,SE,142,7.0,13.0,49,0.00,,,0.00,weatherlink.com 1.10,2013-08-07 19:51:00,
2013-08-07 14:06:00,63.3,44.0,29.88,SSE,150,7.0,18.0,50,0.00,,,0.00,weatherlink.com 1.10,2013-08-07 20:06:00,
2013-08-07 14:21:00,63.6,45.0,29.88,SSE,153,7.0,14.0,51,0.00,,,0.00,weatherlink.com 1.10,2013-08-07 20:21:00,
2013-08-07 14:36:00,64.8,44.0,29.89,SE,145,0.0,15.0,48,0.00,,,0.00,weatherlink.com 1.10,2013-08-07 20:36:00,
2013-08-07 14:51:00,67.4,46.0,29.87,SSW,193,11.0,16.0,46,0.00,,,0.00,weatherlink.com 1.10,2013-08-07 20:51:00,
2013-08-07 15:07:00,68.2,46.0,29.87,South,177,6.0,17.0,45,0.00,,,0.00,weatherlink.com 1.10,2013-08-07 21:07:00,
2013-08-07 15:22:00,69.2,46.0,29.86,South,179,7.0,16.0,43,0.00,,,0.00,weatherlink.com 1.10,2013-08-07 21:22:00,
2013-08-07 15:37:00,70.2,46.0,29.85,SSW,206,5.0,15.0,42,0.00,,,0.00,weatherlink.com 1.10,2013-08-07 21:37:00,
2013-08-07 15:52:00,69.0,45.0,29.84,SSE,149,9.0,14.0,43,0.00,,,0.00,weatherlink.com 1.10,2013-08-07 21:52:00,
2013-08-07 16:07:00,68.6,44.0,29.83,South,173,7.0,19.0,42,0.00,,,0.00,weatherlink.com 1.10,2013-08-07 22:07:00,
2013-08-07 16:22:00,68.4,45.0,29.82,South,180,10.0,12.0,43,0.00,,,0.00,weatherlink.com 1.10,2013-08-07 22:22:00,
2013-08-07 16:37:00,69.6,45.0,29.82,SE,134,6.0,10.0,42,0.00,,,0.00,weatherlink.com 1.10,2013-08-07 22:37:00,
2013-08-07 16:52:00,69.3,45.0,29.82,SSE,168,5.0,11.0,42,0.00,,,0.00,weatherlink.com 1.10,2013-08-07 22:52:00,
2013-08-07 17:07:00,69.5,44.0,29.82,SSW,197,3.0,10.0,40,0.00,,,0.00,weatherlink.com 1.10,2013-08-07 23:07:00,
2013-08-07 17:22:00,69.6,44.0,29.81,SSE,163,9.0,14.0,40,0.00,,,0.00,weatherlink.com 1.10,2013-08-07 23:22:00,
2013-08-07 17:37:00,69.4,44.0,29.81,SSE,148,7.0,8.0,40,0.00,,,0.00,weatherlink.com 1.10,2013-08-07 23:37:00,
2013-08-07 17:52:00,68.2,43.0,29.81,SSE,155,3.0,10.0,41,0.00,,,0.00,weatherlink.com 1.10,2013-08-07 23:52:00,
2013-08-07 18:07:00,69.7,45.0,29.81,SSE,161,1.0,7.0,41,0.00,,,0.00,weatherlink.com 1.10,2013-08-08 00:07:00,
2013-08-07 18:22:00,69.1,44.0,29.81,SSW,193,0.0,11.0,41,0.00,,,0.00,weatherlink.com 1.10,2013-08-08 00:22:00,
2013-08-07 18:37:00,67.9,43.0,29.81,South,189,4.0,7.0,41,0.00,,,0.00,weatherlink.com 1.10,2013-08-08 00:37:00,
2013-08-07 18:52:00,66.8,43.0,29.81,South,173,0.0,0.0,43,0.00,,,0.00,weatherlink.com 1.10,2013-08-08 00:52:00,
2013-08-07 19:07:00,66.6,43.0,29.82,South,173,0.0,0.0,43,0.00,,,0.00,weatherlink.com 1.10,2013-08-08 01:07:00,
2013-08-07 19:22:00,64.8,43.0,29.84,North,1,11.0,23.0,45,0.00,,,0.00,weatherlink.com 1.10,2013-08-08 01:22:00,
2013-08-07 19:37:00,60.7,44.0,29.84,NE,48,14.0,19.0,54,0.00,,,0.00,weatherlink.com 1.10,2013-08-08 01:37:00,
2013-08-07 19:52:00,56.3,46.0,29.85,NNE,20,6.0,19.0,68,0.00,,,0.00,weatherlink.com 1.10,2013-08-08 01:52:00,
2013-08-07 20:07:00,55.7,47.0,29.84,ENE,75,7.0,8.0,73,0.00,,,0.00,weatherlink.com 1.10,2013-08-08 02:07:00,
2013-08-07 20:22:00,55.8,46.0,29.83,East,79,0.0,7.0,69,0.00,,,0.00,weatherlink.com 1.10,2013-08-08 02:22:00,
2013-08-07 20:37:00,56.5,45.0,29.82,East,100,2.0,4.0,65,0.00,,,0.00,weatherlink.com 1.10,2013-08-08 02:37:00,
2013-08-07 20:52:00,57.6,44.0,29.81,SE,129,2.0,5.0,60,0.00,,,0.00,weatherlink.com 1.10,2013-08-08 02:52:00,
2013-08-07 21:07:00,57.3,44.0,29.81,ESE,122,0.0,10.0,62,0.00,,,0.00,weatherlink.com 1.10,2013-08-08 03:07:00,
2013-08-07 21:22:00,57.3,46.0,29.82,NNW,338,0.0,0.0,65,0.00,,,0.00,weatherlink.com 1.10,2013-08-08 03:22:00,
2013-08-07 21:37:00,57.2,45.0,29.82,South,184,0.0,0.0,63,0.00,,,0.00,weatherlink.com 1.10,2013-08-08 03:37:00,
2013-08-07 21:52:00,56.6,44.0,29.83,South,185,0.0,0.0,64,0.00,,,0.00,weatherlink.com 1.10,2013-08-08 03:52:00,
2013-08-07 22:07:00,56.0,44.0,29.84,SSW,197,0.0,0.0,65,0.00,,,0.00,weatherlink.com 1.10,2013-08-08 04:07:00,
2013-08-07 22:22:00,55.4,44.0,29.84,SSE,165,0.0,0.0,66,0.00,,,0.00,weatherlink.com 1.10,2013-08-08 04:22:00,
2013-08-07 22:37:00,55.1,44.0,29.84,SSE,161,0.0,0.0,66,0.00,,,0.00,weatherlink.com 1.10,2013-08-08 04:37:00,
2013-08-07 22:52:00,55.4,44.0,29.84,SSE,161,0.0,0.0,65,0.00,,,0.00,weatherlink.com 1.10,2013-08-08 04:52:00,
2013-08-07 23:07:00,54.8,44.0,29.84,SSE,159,0.0,0.0,67,0.00,,,0.00,weatherlink.com 1.10,2013-08-08 05:07:00,
2013-08-07 23:22:00,54.6,44.0,29.85,SSE,159,0.0,0.0,67,0.00,,,0.00,weatherlink.com 1.10,2013-08-08 05:22:00,
2013-08-07 23:37:00,54.1,44.0,29.85,SSE,159,0.0,0.0,68,0.00,,,0.00,weatherlink.com 1.10,2013-08-08 05:37:00,
2013-08-07 23:52:00,54.1,44.0,29.86,East,94,0.0,0.0,68,0.00,,,0.00,weatherlink.com 1.10,2013-08-08 05:52:00,